Location: ?
(35.3436°N, 139.3168°E)
Time: 07:48:59
(UTC+00:00)

ALOS - Pass Details

Date: 29 October 2020
Orbit: 684 x 684 km, 97.9° (Epoch: 02 December)

Event Time Altitude Azimuth Distance (km) Brightness Sun altitude
Rises 18:55:10 0° 18° (NNE) 3,053 5.9 -26.4°
Reaches altitude 10° 18:57:28 10° 23° (NNE) 2,133 5.1 -26.0°
Maximum altitude 19:02:01 52° 100° (E) 849 3.0 -25.0°
Drops below altitude 10° 19:06:33 10° 176° (S) 2,119 4.8 -24.1°
Sets 19:08:49 0° 182° (S) 3,031 5.6 -23.6°
